K6POO-1 Weather Reports


time (UTC)temp
F
wind
direction
speed
knots
gust
knots
rain 1hr
in
rain 24hr
in
rain mn
in
humidity
%
barometer
mb
20260507015134 60 316 8.7 13.0 0.00 0.00 0.00 77 1018.4
20260507014631 61 306 2.6 15.6 0.00 0.00 0.00 75 1018.4
20260507014126 61 355 9.6 13.0 0.00 0.00 0.00 75 1018.4
20260507013623 60 27 2.6 13.0 0.00 0.00 0.00 76 1018.2
20260507013120 60 320 10.4 13.0 0.00 0.00 0.00 75 1018.3
20260507012617 61 313 10.4 15.6 0.00 0.00 0.00 75 1018.3
20260507012113 61 343 6.1 13.0 0.00 0.00 0.00 74 1018.2
20260507011611 61 324 10.4 14.8 0.00 0.00 0.00 73 1018.4
20260507011107 62 349 8.7 13.9 0.00 0.00 0.00 73 1018.4
20260507010602 62 0 5.2 11.3 0.00 0.00 0.00 73 1018.2
20260507010059 62 346 4.3 11.3 0.00 0.00 0.00 73 1018.3
20260507005556 62 109 2.6 11.3 0.00 0.00 0.00 74 1018.3
20260507005052 62 336 6.1 14.8 0.00 0.00 0.00 74 1018.3
20260507004549 63 336 7.8 13.0 0.00 0.00 0.00 72 1018.2
20260507004046 63 333 4.3 13.0 0.00 0.00 0.00 72 1018.3
20260507003542 64 348 7.0 13.0 0.00 0.00 0.00 70 1018.1
20260507003032 64 346 10.4 12.2 0.00 0.00 0.00 69 1018.3
20260507002529 64 331 4.3 7.8 0.00 0.00 0.00 70 1018.3
20260507002024 65 5 6.1 9.6 0.00 0.00 0.00 69 1018.5
20260507001521 64 324 6.1 13.9 0.00 0.00 0.00 70 1018.4
20260507001019 64 327 7.8 13.0 0.00 0.00 0.00 71 1018.3
20260507000514 64 316 5.2 12.2 0.00 0.00 0.00 70 1018.5
20260507000010 65 329 10.4 12.2 0.00 0.00 0.00 68 1018.5
20260506235508 65 315 7.0 14.8 0.00 0.00 0.00 68 1018.5
20260506235003 64 328 9.6 9.6 0.00 0.00 0.00 69 1018.3
20260506234501 64 347 7.8 11.3 0.00 0.00 0.00 71 1018.5
20260506233959 63 330 3.5 12.2 0.00 0.00 0.00 71 1018.7
20260506233455 64 315 2.6 13.0 0.00 0.00 0.00 69 1018.7
20260506232951 65 354 3.5 10.4 0.00 0.00 0.00 68 1018.6
20260506232448 65 353 5.2 12.2 0.00 0.00 0.00 68 1018.5
20260506231944 65 12 2.6 11.3 0.00 0.00 0.00 68 1018.5
20260506231441 65 11 7.8 12.2 0.00 0.00 0.00 68 1018.8
20260506230938 65 332 7.0 9.6 0.00 0.00 0.00 68 1018.7
20260506230435 66 339 7.0 10.4 0.00 0.00 0.00 68 1018.7
20260506225931 66 295 4.3 11.3 0.00 0.00 0.00 68 1018.7
20260506225428 65 339 7.8 13.0 0.00 0.00 0.00 69 1018.8
20260506224926 65 233 6.1 11.3 0.00 0.00 0.00 69 1018.8
20260506224423 66 303 4.3 10.4 0.00 0.00 0.00 67 1019.1
20260506223919 65 319 1.7 9.6 0.00 0.00 0.00 68 1019.1
20260506223414 65 311 7.8 13.9 0.00 0.00 0.00 68 1019.2
20260506222912 65 259 8.7 13.0 0.00 0.00 0.00 69 1019.2
20260506222408 66 345 2.6 12.2 0.00 0.00 0.00 68 1019.3
20260506221906 66 294 5.2 7.8 0.00 0.00 0.00 67 1019.2
20260506221402 66 353 7.8 14.8 0.00 0.00 0.00 67 1019.5
20260506220901 66 310 4.3 8.7 0.00 0.00 0.00 66 1019.4
20260506220356 66 305 7.0 12.2 0.00 0.00 0.00 68 1019.5
20260506215853 66 268 7.0 13.0 0.00 0.00 0.00 66 1019.7
20260506215348 67 326 7.0 9.6 0.00 0.00 0.00 66 1019.7
20260506214845 67 341 5.2 9.6 0.00 0.00 0.00 66 1019.5
20260506214341 67 331 9.6 10.4 0.00 0.00 0.00 65 1019.7
20260506213840 67 343 4.3 11.3 0.00 0.00 0.00 65 1019.6
20260506213337 68 289 5.2 9.6 0.00 0.00 0.00 65 1019.7
20260506212834 68 300 3.5 8.7 0.00 0.00 0.00 64 1019.7
20260506212330 68 321 1.7 8.7 0.00 0.00 0.00 64 1019.6
20260506211825 68 263 3.5 7.0 0.00 0.00 0.00 62 1019.8
20260506211321 68 247 7.8 7.8 0.00 0.00 0.00 63 1019.7
20260506210819 68 333 6.1 8.7 0.00 0.00 0.00 65 1019.8
20260506210315 67 351 2.6 9.6 0.00 0.00 0.00 66 1019.9
20260506205812 69 345 7.8 11.3 0.00 0.00 0.00 64 1019.8
20260506205308 68 304 3.5 7.0 0.00 0.00 0.00 65 1019.8
20260506204804 67 295 3.5 6.1 0.00 0.00 0.00 67 1019.8
20260506204302 67 11 8.7 12.2 0.00 0.00 0.00 67 1019.8
20260506203800 66 269 3.5 11.3 0.00 0.00 0.00 68 1020.0
20260506203257 67 38 5.2 8.7 0.00 0.00 0.00 66 1020.0
20260506202754 68 353 6.1 12.2 0.00 0.00 0.00 66 1020.1
20260506202251 67 80 3.5 3.5 0.00 0.00 0.00 68 1020.0
20260506201747 67 336 3.5 9.6 0.00 0.00 0.00 65 1020.1
20260506201244 68 342 4.3 8.7 0.00 0.00 0.00 65 1020.2
20260506200741 68 0 6.1 7.8 0.00 0.00 0.00 64 1020.3
20260506200238 67 346 3.5 4.3 0.00 0.00 0.00 66 1020.5
20260506195734 67 353 5.2 7.8 0.00 0.00 0.00 66 1020.4
20260506195230 67 35 3.5 7.8 0.00 0.00 0.00 66 1020.5
20260506194728 69 340 6.1 10.4 0.00 0.00 0.00 63 1020.5
20260506194225 68 43 1.7 3.5 0.00 0.00 0.00 65 1020.4
20260506193722 67 308 4.3 4.3 0.00 0.00 0.00 65 1020.6
20260506193219 66 329 5.2 7.0 0.00 0.00 0.00 66 1020.5
20260506192715 66 291 3.5 7.0 0.00 0.00 0.00 66 1020.7
20260506192212 67 21 4.3 7.8 0.00 0.00 0.00 65 1020.7
20260506191708 67 211 0.9 4.3 0.00 0.00 0.00 65 1020.7
20260506191204 67 27 2.6 4.3 0.00 0.00 0.00 66 1020.7
20260506190702 66 13 0.0 5.2 0.00 0.00 0.00 67 1020.6
20260506190153 66 86 3.5 7.8 0.00 0.00 0.00 67 1020.8
20260506185650 65 40 2.6 7.0 0.00 0.00 0.00 67 1020.9
20260506185146 65 352 1.7 5.2 0.00 0.00 0.00 68 1020.8
20260506184639 65 33 4.3 6.1 0.00 0.00 0.00 67 1020.8
20260506184136 65 344 7.0 9.6 0.00 0.00 0.00 67 1020.6
20260506183632 65 35 5.2 5.2 0.00 0.00 0.00 68 1020.9
20260506183128 64 85 2.6 5.2 0.00 0.00 0.00 69 1020.9
20260506182626 65 16 3.5 8.7 0.00 0.00 0.00 68 1020.8
20260506182122 64 63 3.5 4.3 0.00 0.00 0.00 70 1020.8
20260506181621 63 274 1.7 4.3 0.00 0.00 0.00 72 1021.0
20260506181118 63 317 1.7 6.1 0.00 0.00 0.00 70 1021.0
20260506180614 64 22 0.9 3.5 0.00 0.00 0.00 69 1020.9
20260506180111 64 222 5.2 6.1 0.00 0.00 0.00 68 1020.6
20260506175607 64 34 1.7 3.5 0.00 0.00 0.00 69 1020.9
20260506175103 64 0 2.6 3.5 0.00 0.00 0.00 70 1020.7
20260506174602 64 293 1.7 7.0 0.00 0.00 0.00 69 1020.8
20260506174058 64 316 1.7 3.5 0.00 0.00 0.00 68 1020.8
20260506173556 63 160 3.5 4.3 0.00 0.00 0.00 69 1020.7
20260506173052 64 326 3.5 6.1 0.00 0.00 0.00 69 1020.8
20260506172550 63 34 0.9 3.5 0.00 0.00 0.00 71 1020.8
20260506172045 62 64 2.6 5.2 0.00 0.00 0.00 73 1020.8
20260506171542 62 12 3.5 6.1 0.00 0.00 0.00 71 1021.1
20260506171040 62 304 0.9 1.7 0.00 0.00 0.00 71 1021.0
20260506170538 62 266 0.0 3.5 0.00 0.00 0.00 72 1020.9
20260506170035 61 303 0.9 3.5 0.00 0.00 0.00 74 1021.1
20260506165533 60 302 3.5 4.3 0.00 0.00 0.00 74 1021.2
20260506165024 61 250 1.7 3.5 0.00 0.00 0.00 74 1021.1
20260506164521 61 191 0.9 1.7 0.00 0.00 0.00 73 1020.8
20260506164018 62 350 1.7 5.2 0.00 0.00 0.00 71 1021.0
20260506163514 61 341 1.7 2.6 0.00 0.00 0.00 73 1021.0
20260506163010 60 32 1.7 3.5 0.00 0.00 0.00 74 1021.2
20260506162507 60 0 1.7 2.6 0.00 0.00 0.00 74 1021.1
20260506162003 60 24 1.7 2.6 0.00 0.00 0.00 75 1021.0
20260506161501 60 135 0.0 1.7 0.00 0.00 0.00 76 1021.0
20260506160958 59 146 1.7 1.7 0.00 0.00 0.00 77 1020.9
20260506160455 59 220 1.7 1.7 0.00 0.00 0.00 77 1021.0
20260506155953 59 307 1.7 3.5 0.00 0.00 0.00 77 1021.0
20260506155451 59 247 1.7 3.5 0.00 0.00 0.00 78 1021.0
20260506153622 58 186 0.9 1.7 0.00 0.00 0.00 80 1021.0
20260506153120 58 283 0.0 2.6 0.00 0.00 0.00 80 1020.8
20260506152616 58 268 1.7 4.3 0.00 0.00 0.00 80 1021.1
20260506152115 58 93 0.0 3.5 0.00 0.00 0.00 81 1020.9
20260506151613 58 23 1.7 1.7 0.00 0.00 0.00 82 1020.9
20260506151109 58 184 2.6 3.5 0.00 0.00 0.00 82 1020.9
20260506150606 57 141 0.0 1.7 0.00 0.00 0.00 82 1021.0
20260506145600 57 210 0.0 3.5 0.00 0.00 0.00 81 1020.9
20260506145057 57 226 0.9 2.6 0.00 0.00 0.00 82 1020.8
20260506144554 57 287 1.7 2.6 0.00 0.00 0.00 82 1020.8
20260506144051 57 222 1.7 1.7 0.00 0.00 0.00 82 1020.9
20260506143548 57 229 0.0 1.7 0.00 0.00 0.00 82 1020.9
20260506143047 57 230 0.0 0.9 0.00 0.00 0.00 83 1020.8
20260506142544 56 255 0.0 3.5 0.00 0.00 0.00 83 1020.7
20260506142042 56 174 1.7 2.6 0.00 0.00 0.00 83 1020.8
20260506141539 56 268 3.5 3.5 0.00 0.00 0.00 83 1020.8
20260506141038 56 195 2.6 3.5 0.00 0.00 0.00 84 1020.6
20260506140535 56 182 1.7 2.6 0.00 0.00 0.00 84 1020.5
20260506140032 56 255 2.6 3.5 0.00 0.00 0.00 84 1020.5
20260506135529 55 284 0.9 2.6 0.00 0.00 0.00 85 1020.5
20260506135025 55 239 0.0 2.6 0.00 0.00 0.00 85 1020.6
20260506134521 55 164 1.7 2.6 0.00 0.00 0.00 86 1020.4
20260506134017 55 217 0.0 1.7 0.00 0.00 0.00 86 1020.4
20260506133515 55 209 0.9 2.6 0.00 0.00 0.00 86 1020.4
20260506133012 55 175 0.9 1.7 0.00 0.00 0.00 85 1020.5
20260506132509 55 205 0.9 1.7 0.00 0.00 0.00 85 1020.1
20260506132006 55 157 1.7 1.7 0.00 0.00 0.00 84 1020.1
20260506131503 55 168 0.9 1.7 0.00 0.00 0.00 84 1020.2
20260506131000 55 10 0.0 1.7 0.00 0.00 0.00 84 1020.0
20260506130456 55 274 0.0 2.6 0.00 0.00 0.00 84 1020.1
20260506125954 55 238 0.9 1.7 0.00 0.00 0.00 84 1020.0
20260506125452 55 189 0.0 1.7 0.00 0.00 0.00 85 1020.0
20260506124949 55 212 0.0 3.5 0.00 0.00 0.00 85 1019.9
20260506124447 55 253 0.0 0.9 0.00 0.00 0.00 85 1019.7
20260506123945 55 184 0.9 1.7 0.00 0.00 0.00 85 1020.0
20260506123443 55 165 1.7 1.7 0.00 0.00 0.00 86 1019.8
20260506122940 55 186 0.9 1.7 0.00 0.00 0.00 86 1019.8
20260506122437 55 215 1.7 2.6 0.00 0.00 0.00 86 1019.9
20260506121935 55 177 1.7 2.6 0.00 0.00 0.00 86 1019.8
20260506121431 54 184 1.7 1.7 0.00 0.00 0.00 86 1020.0
20260506120929 54 210 1.7 3.5 0.00 0.00 0.00 87 1019.8
20260506120426 54 168 1.7 1.7 0.00 0.00 0.00 87 1019.9
20260506115923 54 204 3.5 3.5 0.00 0.00 0.00 87 1019.8
20260506115421 54 176 0.0 1.7 0.00 0.00 0.00 87 1020.0
20260506114919 54 168 0.9 1.7 0.00 0.00 0.00 87 1019.8
20260506114417 54 140 0.0 1.7 0.00 0.00 0.00 86 1019.7
20260506113915 54 177 0.9 1.7 0.00 0.00 0.00 86 1019.6
20260506113412 54 224 1.7 1.7 0.00 0.00 0.00 86 1019.7
20260506112909 54 176 1.7 3.5 0.00 0.00 0.00 87 1019.4
20260506112407 54 169 1.7 2.6 0.00 0.00 0.00 87 1019.5
20260506111904 54 174 1.7 1.7 0.00 0.00 0.00 86 1019.6
20260506111402 54 185 1.7 2.6 0.00 0.00 0.00 87 1019.3
20260506110858 54 201 1.7 2.6 0.00 0.00 0.00 87 1019.4
20260506110356 54 190 1.7 2.6 0.00 0.00 0.00 87 1019.3
20260506105853 54 133 1.7 2.6 0.00 0.00 0.00 87 1019.5
20260506105349 54 124 1.7 2.6 0.00 0.00 0.00 86 1019.3
20260506104847 54 166 0.9 1.7 0.00 0.00 0.00 87 1019.5
20260506104344 54 13 0.0 2.6 0.00 0.00 0.00 86 1019.4
20260506103842 55 175 1.7 1.7 0.00 0.00 0.00 86 1019.3
20260506103339 55 191 0.0 1.7 0.00 0.00 0.00 86 1019.4
20260506102836 55 169 0.9 1.7 0.00 0.00 0.00 86 1019.2
20260506102334 55 264 2.6 2.6 0.00 0.00 0.00 86 1019.2
20260506101831 55 201 1.7 3.5 0.00 0.00 0.00 85 1019.1
20260506101327 55 157 1.7 2.6 0.00 0.00 0.00 85 1019.2
20260506100825 55 147 0.0 2.6 0.00 0.00 0.00 85 1019.0
20260506100323 55 174 0.0 1.7 0.00 0.00 0.00 85 1019.4
20260506095822 55 217 1.7 3.5 0.00 0.00 0.00 85 1019.1
20260506095318 55 204 2.6 3.5 0.00 0.00 0.00 85 1019.4
20260506094815 55 166 0.9 1.7 0.00 0.00 0.00 84 1019.3
20260506094314 55 232 0.0 1.7 0.00 0.00 0.00 84 1019.2
20260506093812 55 181 0.0 1.7 0.00 0.00 0.00 85 1019.3
20260506093308 55 191 1.7 2.6 0.00 0.00 0.00 85 1019.1
20260506092806 55 162 0.9 1.7 0.00 0.00 0.00 85 1019.2
20260506092306 55 126 0.0 3.5 0.00 0.00 0.00 85 1019.3
20260506091801 55 201 1.7 2.6 0.00 0.00 0.00 85 1019.2
20260506091258 55 168 1.7 1.7 0.00 0.00 0.00 85 1019.3
20260506090756 55 196 1.7 1.7 0.00 0.00 0.00 85 1019.2
20260506090253 55 174 2.6 2.6 0.00 0.00 0.00 85 1019.1
20260506085749 55 167 1.7 1.7 0.00 0.00 0.00 85 1019.1
20260506085246 55 178 0.9 1.7 0.00 0.00 0.00 85 1019.2
20260506084742 55 143 1.7 2.6 0.00 0.00 0.00 85 1019.1
20260506084239 55 167 0.0 1.7 0.00 0.00 0.00 84 1019.2
20260506083736 55 198 0.0 1.7 0.00 0.00 0.00 84 1019.3
20260506083233 56 197 1.7 1.7 0.00 0.00 0.00 83 1019.5
20260506082731 56 149 0.0 0.9 0.00 0.00 0.00 83 1019.2
20260506082226 56 353 1.7 3.5 0.00 0.00 0.00 82 1019.3
20260506081724 56 0 2.6 6.1 0.00 0.00 0.00 82 1019.3
20260506081221 56 242 0.9 3.5 0.00 0.00 0.00 82 1019.3
20260506080719 56 214 0.0 1.7 0.00 0.00 0.00 82 1019.2
20260506080215 56 172 0.0 1.7 0.00 0.00 0.00 82 1019.2
20260506073159 56 296 0.0 2.6 0.00 0.00 0.00 82 1019.0
20260506072651 56 354 1.7 2.6 0.00 0.00 0.00 82 1018.9
20260506072149 56 327 2.6 2.6 0.00 0.00 0.00 82 1019.1
20260506071646 56 258 2.6 3.5 0.00 0.00 0.00 81 1018.9
20260506071143 56 265 0.0 3.5 0.00 0.00 0.00 81 1018.9
20260506070640 56 350 1.7 4.3 0.00 0.00 0.00 81 1018.7
20260506070137 56 196 1.7 3.5 0.00 0.00 0.00 81 1018.9
20260506062114 56 129 0.9 1.7 0.00 0.09 0.09 82 1018.4
20260506061610 56 135 0.9 1.7 0.00 0.09 0.09 82 1018.5
20260506061108 56 347 0.0 1.7 0.00 0.09 0.09 82 1018.4
20260506060607 56 170 3.5 3.5 0.00 0.09 0.09 81 1018.5
20260506051035 56 64 0.0 1.7 0.00 0.09 0.09 82 1018.2
20260506050532 57 235 1.7 2.6 0.00 0.09 0.09 83 1018.2
20260506045023 57 216 2.6 5.2 0.00 0.09 0.09 84 1018.2
20260506044521 57 230 3.5 7.0 0.00 0.09 0.09 84 1018.0
20260506044017 56 218 1.7 3.5 0.00 0.09 0.09 84 1018.1
20260506043515 56 130 0.0 1.7 0.00 0.09 0.09 83 1018.1
20260506043014 56 152 1.7 2.6 0.00 0.09 0.09 83 1018.0
20260506042512 56 180 1.7 2.6 0.00 0.09 0.09 82 1017.8
20260506042009 56 258 2.6 2.6 0.00 0.09 0.09 82 1017.7
20260506041509 57 122 1.7 4.3 0.00 0.09 0.09 81 1017.6
20260506041005 56 290 1.7 4.3 0.00 0.09 0.09 81 1017.8
20260506040503 56 213 0.9 3.5 0.00 0.09 0.09 82 1017.6
20260506035958 57 204 1.7 4.3 0.00 0.09 0.09 82 1017.5
20260506035455 57 230 1.7 2.6 0.00 0.09 0.09 82 1017.4
20260506034952 57 203 1.7 7.0 0.00 0.09 0.09 82 1017.4
20260506034449 57 220 5.2 8.7 0.00 0.09 0.09 82 1017.1
20260506033946 57 249 1.7 9.6 0.00 0.09 0.09 81 1017.0
20260506033444 57 205 1.7 6.1 0.00 0.09 0.09 81 1017.0
20260506032940 57 218 1.7 5.2 0.00 0.09 0.09 81 1017.0
20260506032438 57 263 4.3 7.8 0.00 0.09 0.09 81 1016.9
20260506031934 57 294 0.0 4.3 0.00 0.09 0.09 80 1016.8
20260506031431 57 292 3.5 7.8 0.00 0.09 0.09 81 1016.8
20260506030929 57 251 3.5 3.5 0.00 0.09 0.09 81 1016.8
20260506030427 57 323 3.5 4.3 0.00 0.09 0.09 80 1017.0
20260506025923 57 184 3.5 8.7 0.00 0.09 0.09 80 1016.7
20260506025421 57 236 7.8 8.7 0.00 0.09 0.09 81 1016.5
20260506024917 57 205 1.7 7.8 0.00 0.09 0.09 81 1016.7
20260506024414 57 219 4.3 9.6 0.00 0.09 0.09 82 1016.9
20260506023910 57 218 1.7 7.8 0.00 0.09 0.09 81 1016.5
20260506023407 57 146 4.3 7.0 0.00 0.09 0.09 80 1016.6
20260506022903 57 225 5.2 7.8 0.00 0.09 0.09 80 1016.5
20260506022401 57 213 7.0 11.3 0.00 0.09 0.09 80 1016.5
20260506021859 57 225 2.6 11.3 0.00 0.09 0.09 81 1016.6
20260506021356 57 235 7.0 13.0 0.00 0.09 0.09 81 1016.5
20260506020853 58 171 1.7 9.6 0.00 0.09 0.09 81 1016.4
20260506020351 58 204 4.3 11.3 0.00 0.09 0.09 80 1016.3
20260506015848 58 205 6.1 11.3 0.00 0.09 0.09 80 1016.2